{"data":{"norad_id":48594,"intl_designator":"2021-041AT","name":"STARLINK-2251","alt_names":[],"object_type":"PAYLOAD","status":"ACTIVE","operator":null,"country":"US","launch_date":"2021-05-15","launch_site_code":"AFETR","launch_vehicle":null,"mission":null,"orbit_class":"UNKNOWN","rcs_meters":null,"size_class":null,"mass_kg":null,"dimensions":null,"purposes":["comms"],"wikipedia_slug":null,"has_3d_model":false,"image_url":null,"decayed_at":null,"tle_current":{"epoch":"2026-05-25T04:42:00.582048Z","epoch_age_seconds":48408,"freshness":"FRESH","line1":"1 48594U 21041AT  26145.19584007 -.00000456  00000+0 -34874-5 0  9997","line2":"2 48594  53.1603 118.6313 0001043  89.4757 270.6363 15.29357911277164","mean_motion":15.29357911,"eccentricity":0.0001043,"inclination_deg":53.1603,"raan_deg":118.6313,"arg_perigee_deg":89.4757,"mean_anomaly_deg":270.6363,"bstar":-3.4874e-6,"rev_number":27716,"period_min":94.157161619443,"perigee_km":477.01548202002,"apogee_km":478.44561599074,"semimajor_km":6855.8675490054,"source":"CELESTRAK","updated_at":"2026-05-25T13:38:16.751127Z"}}}